sat.trackr.live / text

‹ back to catalog

STARLINK-31635

NORAD 59511 · 2024-073A

PAYLOAD ACTIVE UNKNOWN

§ Identity

Operator
Country
US
Launch date
2024-04-17
Launch site
AFETR
Launch vehicle
Mass (kg)
RCS (m²)

Purposes: comms

External: N2YO · Heavens-Above · Gunter

§ Orbital elements

Epoch: 2026-09-21T08:23:35.384640Z

Period
94.27 min
Inclination
43.0036°
Eccentricity
0.0001426
Mean motion
15.27581979 rev/d
Perigee alt
482.1 km
Apogee alt
484.0 km
Semi-major
6,861.2 km
B*
4.9028e-5
RAAN
292.6678°
Arg perigee
253.3088°
Mean anomaly
106.7607°
Rev number
13,610

§ Raw data

STARLINK-316351 59511U 24073A   26264.34971510  .00001087  00000+0  49028-4 0  99992 59511  43.0036 292.6678 0001426 253.3088 106.7607 15.27581979136103

JSON: /api/v1/satellites/59511 · /tle

For live sub-satellite position, see the globe view (requires WebGL).

§ Visibility from observer

Set your observer location to see the next 7 days of passes ≥ 10°. The values pass through the URL so the page stays shareable.

No JS? Fill the form by hand. The geolocation button needs JavaScript.